This demonstration page uses our WeatherBlox Daily Observations layout. Learn more.

Left ArrowRight Arrow

34.16533, -84.80231

Hourly Observations for July 26, 2017

Temp ( °F °C ) Dew Point ( °F °C ) Humidity (%) Winds ( mph kmh ) Pressure ( in mb ) Visibility ( mi km ) Precip ( " mm )
12:53 am 00:53 Clear 73 22.8 73 22.8 100 100 Calm 30.07 1018 8 13 0.00 0.00
1:53 am 01:53 Clear 72 22.2 72 22.2 100 100 Calm 30.06 1018 7 11 0.00 0.00
2:53 am 02:53 Clear 71 21.7 71 21.7 100 100 Calm 30.06 1018 7 11 0.00 0.00
3:53 am 03:53 Clear with Mist and Fog 71 21.7 71 21.7 100 100 Calm 30.06 1018 6 10 0.00 0.00
4:53 am 04:53 Clear 71 21.7 71 21.7 100 100 Calm 30.06 1018 7 11 0.00 0.00
5:53 am 05:53 Clear with Mist and Fog 70 21.1 70 21.1 100 100 Calm 30.07 1018 6 10 0.00 0.00
6:53 am 06:53 Sunny with Mist and Fog 70 21.1 70 21.1 100 100 Calm 30.09 1019 4 6 0.00 0.00
7:53 am 07:53 Sunny with Mist and Fog 72 22.2 72 22.2 100 100 Calm 30.10 1019 6 10 0.00 0.00
8:53 am 08:53 Sunny 76 24.4 73 22.8 91 91 Calm 30.11 1020 8 13 0.00 0.00
9:53 am 09:53 Sunny 80 26.7 75 23.9 85 85 Calm 30.11 1020 8 13 0.00 0.00
10:53 am 10:53 Sunny 85 29.4 74 23.3 70 70 SE 5 7 30.09 1019 9 14 0.00 0.00
11:53 am 11:53 Sunny 88 31.1 71 21.7 57 57 VRB 5 7 30.10 1019 9 14 0.00 0.00
12:53 pm 12:53 Sunny 89 31.7 72 22.2 57 57 Calm 30.09 1019 10 16 0.00 0.00
1:53 pm 13:53 Mostly Sunny 91 32.8 73 22.8 56 56 VRB 3 6 30.07 1018 9 14 0.00 0.00
2:53 pm 14:53 Mostly Sunny 92 33.3 72 22.2 52 52 Calm 30.05 1018 10 16 0.00 0.00
3:53 pm 15:53 Partly Cloudy 93 33.9 73 22.8 52 52 ESE 3 6 30.04 1017 10 16 0.00 0.00
4:53 pm 16:53 Sunny 92 33.3 73 22.8 54 54 VRB 5 7 30.02 1017 10 16 0.00 0.00
5:53 pm 17:53 Sunny 91 32.8 74 23.3 57 57 VRB 3 6 30.01 1016 9 14 0.00 0.00
6:53 pm 18:53 Sunny 87 30.6 77 25 72 72 Calm 30.02 1017 9 14 0.00 0.00
7:53 pm 19:53 Sunny 82 27.8 79 26.1 90 90 Calm 30.01 1016 7 11 0.00 0.00
8:53 pm 20:53 Clear 82 27.8 78 25.6 88 88 Calm 30.01 1016 8 13 0.00 0.00
9:53 pm 21:53 Partly Cloudy 79 26.1 75 23.9 88 88 SSE 5 7 30.03 1017 9 14 0.00 0.00
10:53 pm 22:53 Clear 77 25 75 23.9 94 94 Calm 30.05 1018 9 14 0.00 0.00
11:53 pm 23:53 Partly Cloudy 77 25 75 23.9 94 94 Calm 30.07 1018 8 13 0.00 0.00

Powered by AerisWeather